Back to catalog

KYOKKO 1 DEB

AliveUNKNOWN
NORAD 12329·DEBRIS·🇯🇵 Japan

Launched Feb 4, 1978 from Uchinoura Space Center

Loading…

Next Passes (next 24 hours)

TLE

FreshSource: Space-Track

Epoch: Sep 11, 2026, 10:47 UTC

1 12329U 78014C   26254.44999410  .00000078  00000-0  13989-3 0  9994
2 12329  65.2645 283.4440 1882376 188.7207 167.6094 10.80538179896930

Track KYOKKO 1 DEB in real time with AllMySat

Download on the App Store